Time,TemperatureF,DewpointF,PressureIn,WindDirection,WindDirectionDegrees,WindSpeedMPH,WindSpeedGustMPH,Humidity,HourlyPrecipIn,Conditions,Clouds,dailyrainin,SoftwareType,DateUTC
2013-07-26 00:00:00,62.7,62.1,30.03,South,188,0.0,0.0,98,0.00,,,0.66,Wunderground v.1.15,2013-07-26 04:00:00,
2013-07-26 00:05:00,62.6,62.0,30.04,South,188,0.0,0.0,98,0.00,,,0.00,Wunderground v.1.15,2013-07-26 04:05:00,
2013-07-26 00:10:00,62.6,62.0,30.04,South,188,0.0,0.0,98,0.00,,,0.00,Wunderground v.1.15,2013-07-26 04:10:00,
2013-07-26 00:15:00,62.6,62.0,30.04,South,188,0.0,0.0,98,0.00,,,0.00,Wunderground v.1.15,2013-07-26 04:15:00,
2013-07-26 00:20:00,62.5,61.9,30.04,South,188,0.0,0.0,98,0.00,,,0.00,Wunderground v.1.15,2013-07-26 04:20:00,
2013-07-26 00:25:00,62.4,61.8,30.04,South,188,0.0,0.0,98,0.00,,,0.00,Wunderground v.1.15,2013-07-26 04:25:00,
2013-07-26 00:30:00,62.3,61.7,30.04,South,188,0.0,0.0,98,0.00,,,0.00,Wunderground v.1.15,2013-07-26 04:30:00,
2013-07-26 00:35:00,62.1,61.5,30.04,South,188,0.0,0.0,98,0.00,,,0.00,Wunderground v.1.15,2013-07-26 04:35:00,
2013-07-26 00:40:00,62.0,61.4,30.04,South,188,0.0,0.0,98,0.00,,,0.00,Wunderground v.1.15,2013-07-26 04:40:00,
2013-07-26 00:45:00,61.9,61.3,30.05,South,188,0.0,0.0,98,0.00,,,0.00,Wunderground v.1.15,2013-07-26 04:45:00,
2013-07-26 00:49:00,61.9,61.3,30.05,South,188,0.0,0.0,98,0.00,,,0.00,Wunderground v.1.15,2013-07-26 04:49:00,
2013-07-26 00:55:00,61.8,61.2,30.05,South,188,0.0,0.0,98,0.00,,,0.00,Wunderground v.1.15,2013-07-26 04:55:00,
2013-07-26 01:00:00,61.8,61.2,30.05,South,188,0.0,0.0,98,0.00,,,0.00,Wunderground v.1.15,2013-07-26 05:00:00,
2013-07-26 01:05:00,61.8,61.2,30.05,South,188,0.0,0.0,98,0.00,,,0.00,Wunderground v.1.15,2013-07-26 05:05:00,
2013-07-26 01:10:00,61.8,61.2,30.05,South,188,0.0,0.0,98,0.00,,,0.00,Wunderground v.1.15,2013-07-26 05:10:00,
2013-07-26 01:15:00,61.7,61.1,30.04,South,188,0.0,0.0,98,0.00,,,0.00,Wunderground v.1.15,2013-07-26 05:15:00,
2013-07-26 01:20:00,61.6,61.0,30.05,South,188,0.0,0.0,98,0.00,,,0.00,Wunderground v.1.15,2013-07-26 05:20:00,
2013-07-26 01:25:00,61.6,61.0,30.04,South,188,0.0,0.0,98,0.00,,,0.00,Wunderground v.1.15,2013-07-26 05:25:00,
2013-07-26 01:30:00,61.7,61.1,30.04,South,188,0.0,0.0,98,0.00,,,0.00,Wunderground v.1.15,2013-07-26 05:30:00,
2013-07-26 01:35:00,61.7,61.1,30.04,South,188,0.0,0.0,98,0.00,,,0.00,Wunderground v.1.15,2013-07-26 05:35:00,
2013-07-26 01:40:00,61.7,61.1,30.04,South,188,0.0,0.0,98,0.00,,,0.00,Wunderground v.1.15,2013-07-26 05:40:00,
2013-07-26 01:45:00,61.7,61.1,30.04,South,188,0.0,0.0,98,0.00,,,0.00,Wunderground v.1.15,2013-07-26 05:45:00,
2013-07-26 01:50:00,61.8,61.2,30.04,South,188,0.0,0.0,98,0.00,,,0.00,Wunderground v.1.15,2013-07-26 05:50:00,
2013-07-26 01:55:00,61.8,61.2,30.04,South,188,0.0,0.0,98,0.00,,,0.00,Wunderground v.1.15,2013-07-26 05:55:00,
2013-07-26 02:00:00,61.9,61.3,30.04,South,188,0.0,0.0,98,0.00,,,0.00,Wunderground v.1.15,2013-07-26 06:00:00,
2013-07-26 02:05:00,62.0,61.4,30.04,South,188,0.0,0.0,98,0.00,,,0.00,Wunderground v.1.15,2013-07-26 06:05:00,
2013-07-26 02:10:00,62.1,61.5,30.04,South,188,0.0,0.0,98,0.00,,,0.00,Wunderground v.1.15,2013-07-26 06:10:00,
2013-07-26 02:15:00,62.1,61.5,30.04,South,188,0.0,0.0,98,0.00,,,0.00,Wunderground v.1.15,2013-07-26 06:15:00,
2013-07-26 02:25:00,62.0,61.4,30.04,South,188,0.0,0.0,98,0.00,,,0.00,Wunderground v.1.15,2013-07-26 06:25:00,
2013-07-26 02:30:00,61.9,61.3,30.04,South,188,0.0,0.0,98,0.00,,,0.00,Wunderground v.1.15,2013-07-26 06:30:00,
2013-07-26 02:35:00,61.8,61.2,30.04,South,188,0.0,0.0,98,0.00,,,0.00,Wunderground v.1.15,2013-07-26 06:35:00,
2013-07-26 02:40:00,61.8,61.2,30.04,South,188,0.0,0.0,98,0.00,,,0.00,Wunderground v.1.15,2013-07-26 06:40:00,
2013-07-26 02:45:00,61.8,61.2,30.04,South,188,0.0,0.0,98,0.00,,,0.00,Wunderground v.1.15,2013-07-26 06:45:00,
2013-07-26 02:55:00,61.7,61.1,30.04,South,188,0.0,0.0,98,0.00,,,0.00,Wunderground v.1.15,2013-07-26 06:55:00,
2013-07-26 03:00:00,61.7,61.1,30.04,South,188,0.0,0.0,98,0.00,,,0.00,Wunderground v.1.15,2013-07-26 07:00:00,
2013-07-26 03:05:00,61.7,61.1,30.04,South,188,0.0,0.0,98,0.00,,,0.00,Wunderground v.1.15,2013-07-26 07:05:00,
2013-07-26 03:10:00,61.6,61.0,30.04,South,188,0.0,0.0,98,0.00,,,0.00,Wunderground v.1.15,2013-07-26 07:10:00,
2013-07-26 03:15:00,61.5,60.9,30.04,South,188,0.0,0.0,98,0.00,,,0.00,Wunderground v.1.15,2013-07-26 07:15:00,
2013-07-26 03:20:00,61.4,60.8,30.04,South,188,0.0,0.0,98,0.00,,,0.00,Wunderground v.1.15,2013-07-26 07:20:00,
2013-07-26 03:25:00,61.3,60.7,30.04,South,188,0.0,0.0,98,0.00,,,0.00,Wunderground v.1.15,2013-07-26 07:25:00,
2013-07-26 03:30:00,61.3,60.7,30.04,South,188,0.0,0.0,98,0.00,,,0.00,Wunderground v.1.15,2013-07-26 07:30:00,
2013-07-26 03:35:00,61.3,60.7,30.04,South,188,0.0,0.0,98,0.00,,,0.00,Wunderground v.1.15,2013-07-26 07:35:00,
2013-07-26 03:40:00,61.3,60.7,30.03,South,188,0.0,0.0,98,0.00,,,0.00,Wunderground v.1.15,2013-07-26 07:40:00,
2013-07-26 03:45:00,61.3,60.7,30.04,South,188,0.0,0.0,98,0.00,,,0.00,Wunderground v.1.15,2013-07-26 07:45:00,
2013-07-26 03:50:00,61.2,60.6,30.04,South,188,0.0,0.0,98,0.00,,,0.00,Wunderground v.1.15,2013-07-26 07:50:00,
2013-07-26 03:55:00,61.2,60.6,30.04,South,188,0.0,0.0,98,0.00,,,0.00,Wunderground v.1.15,2013-07-26 07:55:00,
2013-07-26 04:00:00,61.2,60.9,30.04,South,188,0.0,0.0,99,0.00,,,0.00,Wunderground v.1.15,2013-07-26 08:00:00,
2013-07-26 04:05:00,61.2,60.9,30.04,South,188,0.0,0.0,99,0.00,,,0.00,Wunderground v.1.15,2013-07-26 08:05:00,
2013-07-26 04:10:00,61.3,61.0,30.04,South,188,0.0,0.0,99,0.00,,,0.00,Wunderground v.1.15,2013-07-26 08:10:00,
2013-07-26 04:15:00,61.3,61.0,30.04,South,188,0.0,0.0,99,0.00,,,0.00,Wunderground v.1.15,2013-07-26 08:15:00,
2013-07-26 04:20:00,61.3,61.0,30.04,South,188,0.0,0.0,99,0.00,,,0.00,Wunderground v.1.15,2013-07-26 08:20:00,
2013-07-26 04:25:00,61.3,61.0,30.04,South,188,0.0,0.0,99,0.00,,,0.00,Wunderground v.1.15,2013-07-26 08:25:00,
2013-07-26 04:30:00,61.3,61.0,30.04,South,188,0.0,0.0,99,0.00,,,0.00,Wunderground v.1.15,2013-07-26 08:30:00,
2013-07-26 04:35:00,61.4,61.1,30.04,South,188,0.0,0.0,99,0.00,,,0.00,Wunderground v.1.15,2013-07-26 08:35:00,
2013-07-26 04:40:00,61.4,61.1,30.04,South,188,0.0,0.0,99,0.00,,,0.00,Wunderground v.1.15,2013-07-26 08:40:00,
2013-07-26 04:45:00,61.4,61.1,30.04,South,188,0.0,0.0,99,0.00,,,0.00,Wunderground v.1.15,2013-07-26 08:45:00,
2013-07-26 04:54:00,61.6,61.3,30.04,South,188,0.0,0.0,99,0.00,,,0.00,Wunderground v.1.15,2013-07-26 08:54:00,
2013-07-26 05:00:00,61.7,61.4,30.04,South,188,0.0,0.0,99,0.00,,,0.00,Wunderground v.1.15,2013-07-26 09:00:00,
2013-07-26 05:05:00,61.7,61.4,30.04,South,188,0.0,0.0,99,0.00,,,0.00,Wunderground v.1.15,2013-07-26 09:05:00,
2013-07-26 05:15:00,61.7,61.4,30.05,South,188,0.0,0.0,99,0.00,,,0.00,Wunderground v.1.15,2013-07-26 09:15:00,
2013-07-26 05:20:00,61.7,61.4,30.05,South,188,0.0,0.0,99,0.00,,,0.00,Wunderground v.1.15,2013-07-26 09:20:00,
2013-07-26 05:25:00,61.6,61.3,30.05,South,188,0.0,0.0,99,0.00,,,0.00,Wunderground v.1.15,2013-07-26 09:25:00,
2013-07-26 05:30:00,61.5,60.9,30.05,South,188,0.0,0.0,98,0.00,,,0.00,Wunderground v.1.15,2013-07-26 09:30:00,
2013-07-26 05:40:00,61.5,61.2,30.05,South,188,0.0,0.0,99,0.00,,,0.00,Wunderground v.1.15,2013-07-26 09:40:00,
2013-07-26 05:45:00,61.5,61.2,30.05,South,188,0.0,0.0,99,0.00,,,0.00,Wunderground v.1.15,2013-07-26 09:45:00,
2013-07-26 05:50:00,61.5,61.2,30.05,South,188,0.0,0.0,99,0.00,,,0.00,Wunderground v.1.15,2013-07-26 09:50:00,
2013-07-26 05:55:00,61.5,61.2,30.06,South,188,0.0,0.0,99,0.00,,,0.00,Wunderground v.1.15,2013-07-26 09:55:00,
2013-07-26 06:00:00,61.6,61.3,30.06,South,188,0.0,0.0,99,0.00,,,0.00,Wunderground v.1.15,2013-07-26 10:00:00,
2013-07-26 06:05:00,61.6,61.3,30.06,South,188,0.0,0.0,99,0.00,,,0.00,Wunderground v.1.15,2013-07-26 10:05:00,
2013-07-26 06:10:00,61.7,61.4,30.06,South,188,0.0,0.0,99,0.00,,,0.00,Wunderground v.1.15,2013-07-26 10:10:00,
2013-07-26 06:15:00,61.7,61.4,30.06,South,188,0.0,0.0,99,0.00,,,0.00,Wunderground v.1.15,2013-07-26 10:15:00,
2013-07-26 06:20:00,61.8,61.5,30.07,South,188,0.0,0.0,99,0.00,,,0.00,Wunderground v.1.15,2013-07-26 10:20:00,
2013-07-26 06:25:00,61.9,61.6,30.07,South,188,0.0,0.0,99,0.00,,,0.00,Wunderground v.1.15,2013-07-26 10:25:00,
2013-07-26 06:30:00,62.0,61.7,30.07,South,188,0.0,0.0,99,0.00,,,0.00,Wunderground v.1.15,2013-07-26 10:30:00,
2013-07-26 06:35:00,62.0,61.7,30.07,South,188,0.0,0.0,99,0.00,,,0.00,Wunderground v.1.15,2013-07-26 10:35:00,
2013-07-26 06:40:00,62.1,61.8,30.07,South,188,0.0,0.0,99,0.00,,,0.00,Wunderground v.1.15,2013-07-26 10:40:00,
2013-07-26 06:45:00,62.2,61.9,30.07,South,188,0.0,0.0,99,0.00,,,0.00,Wunderground v.1.15,2013-07-26 10:45:00,
2013-07-26 06:50:00,62.2,61.9,30.07,South,188,0.0,0.0,99,0.00,,,0.00,Wunderground v.1.15,2013-07-26 10:50:00,
2013-07-26 06:55:00,62.2,61.9,30.07,South,188,0.0,0.0,99,0.00,,,0.00,Wunderground v.1.15,2013-07-26 10:55:00,
2013-07-26 07:00:00,62.3,62.0,30.07,South,188,0.0,0.0,99,0.00,,,0.00,Wunderground v.1.15,2013-07-26 11:00:00,
2013-07-26 07:05:00,62.4,62.1,30.07,South,188,0.0,0.0,99,0.00,,,0.00,Wunderground v.1.15,2013-07-26 11:05:00,
2013-07-26 07:10:00,62.5,62.2,30.07,South,188,0.0,0.0,99,0.00,,,0.00,Wunderground v.1.15,2013-07-26 11:10:00,
2013-07-26 07:15:00,62.6,62.3,30.07,South,188,0.0,0.0,99,0.00,,,0.00,Wunderground v.1.15,2013-07-26 11:15:00,
2013-07-26 07:20:00,62.6,62.3,30.07,South,188,0.0,0.0,99,0.00,,,0.00,Wunderground v.1.15,2013-07-26 11:20:00,
2013-07-26 07:30:00,62.7,62.4,30.08,South,188,0.0,0.0,99,0.00,,,0.00,Wunderground v.1.15,2013-07-26 11:30:00,
2013-07-26 07:40:00,62.9,62.6,30.08,South,188,0.0,0.0,99,0.00,,,0.00,Wunderground v.1.15,2013-07-26 11:40:00,
2013-07-26 07:45:00,62.9,62.6,30.08,South,188,0.0,0.0,99,0.00,,,0.00,Wunderground v.1.15,2013-07-26 11:45:00,
2013-07-26 07:50:00,63.0,62.7,30.08,South,188,0.0,0.0,99,0.00,,,0.00,Wunderground v.1.15,2013-07-26 11:50:00,
2013-07-26 07:55:00,63.2,62.9,30.08,South,188,0.0,0.0,99,0.00,,,0.00,Wunderground v.1.15,2013-07-26 11:55:00,
2013-07-26 08:00:00,63.3,63.0,30.08,South,188,0.0,0.0,99,0.00,,,0.00,Wunderground v.1.15,2013-07-26 12:00:00,
2013-07-26 08:05:00,63.5,63.2,30.08,South,188,0.0,0.0,99,0.00,,,0.00,Wunderground v.1.15,2013-07-26 12:05:00,
2013-07-26 08:10:00,63.7,63.4,30.09,South,188,0.0,0.0,99,0.00,,,0.00,Wunderground v.1.15,2013-07-26 12:10:00,
2013-07-26 08:15:00,63.8,63.2,30.09,South,188,0.0,0.0,98,0.00,,,0.00,Wunderground v.1.15,2013-07-26 12:15:00,
2013-07-26 08:20:00,63.9,63.3,30.09,South,188,0.0,0.0,98,0.00,,,0.00,Wunderground v.1.15,2013-07-26 12:20:00,
2013-07-26 08:25:00,64.0,63.4,30.09,South,188,0.0,0.0,98,0.00,,,0.00,Wunderground v.1.15,2013-07-26 12:25:00,
2013-07-26 08:30:00,64.1,63.8,30.09,South,188,0.0,0.0,99,0.00,,,0.00,Wunderground v.1.15,2013-07-26 12:30:00,
2013-07-26 08:35:00,64.3,64.0,30.10,South,188,0.0,0.0,99,0.00,,,0.00,Wunderground v.1.15,2013-07-26 12:35:00,
2013-07-26 08:40:00,64.4,64.1,30.10,South,188,0.0,0.0,99,0.00,,,0.00,Wunderground v.1.15,2013-07-26 12:40:00,
2013-07-26 08:45:00,64.5,64.2,30.09,South,188,0.0,0.0,99,0.00,,,0.00,Wunderground v.1.15,2013-07-26 12:45:00,
2013-07-26 08:50:00,64.5,64.2,30.10,South,188,0.0,0.0,99,0.00,,,0.00,Wunderground v.1.15,2013-07-26 12:50:00,
2013-07-26 08:55:00,64.7,64.1,30.10,South,188,0.0,0.0,98,0.00,,,0.00,Wunderground v.1.15,2013-07-26 12:55:00,
2013-07-26 09:00:00,64.9,64.6,30.10,South,188,0.0,0.0,99,0.00,,,0.00,Wunderground v.1.15,2013-07-26 13:00:00,
2013-07-26 09:05:00,65.1,64.8,30.11,South,188,0.0,0.0,99,0.00,,,0.00,Wunderground v.1.15,2013-07-26 13:05:00,
2013-07-26 09:10:00,65.3,65.0,30.10,South,188,0.0,0.0,99,0.00,,,0.00,Wunderground v.1.15,2013-07-26 13:10:00,
2013-07-26 09:15:00,65.4,65.1,30.10,South,188,0.0,0.0,99,0.00,,,0.00,Wunderground v.1.15,2013-07-26 13:15:00,
2013-07-26 09:20:00,65.6,65.3,30.10,South,188,0.0,0.0,99,0.00,,,0.00,Wunderground v.1.15,2013-07-26 13:20:00,
2013-07-26 09:25:00,65.8,65.5,30.10,South,188,0.0,0.0,99,0.00,,,0.00,Wunderground v.1.15,2013-07-26 13:25:00,
2013-07-26 09:30:00,66.2,65.9,30.10,WNW,289,0.0,1.0,99,0.00,,,0.00,Wunderground v.1.15,2013-07-26 13:30:00,
2013-07-26 09:40:00,66.7,66.4,30.10,WNW,289,0.0,0.0,99,0.00,,,0.00,Wunderground v.1.15,2013-07-26 13:40:00,
2013-07-26 09:45:00,66.9,66.6,30.09,WNW,289,0.0,0.0,99,0.00,,,0.00,Wunderground v.1.15,2013-07-26 13:45:00,
2013-07-26 09:50:00,67.1,66.8,30.09,WSW,249,1.0,1.0,99,0.00,,,0.00,Wunderground v.1.15,2013-07-26 13:50:00,
2013-07-26 09:55:00,67.3,67.0,30.10,WSW,249,1.0,1.0,99,0.00,,,0.00,Wunderground v.1.15,2013-07-26 13:55:00,
2013-07-26 10:00:00,67.6,67.3,30.09,WSW,249,1.0,1.0,99,0.00,,,0.00,Wunderground v.1.15,2013-07-26 14:00:00,
2013-07-26 10:05:00,67.7,67.4,30.10,WSW,249,0.0,1.0,99,0.00,,,0.00,Wunderground v.1.15,2013-07-26 14:05:00,
2013-07-26 10:10:00,67.9,67.3,30.10,WSW,249,0.0,0.0,98,0.00,,,0.00,Wunderground v.1.15,2013-07-26 14:10:00,
2013-07-26 10:15:00,68.1,67.8,30.10,WSW,249,0.0,0.0,99,0.00,,,0.00,Wunderground v.1.15,2013-07-26 14:15:00,
2013-07-26 10:20:00,68.1,67.8,30.10,NE,34,0.0,0.0,99,0.00,,,0.00,Wunderground v.1.15,2013-07-26 14:20:00,
2013-07-26 10:25:00,67.9,67.3,30.09,East,84,0.0,0.0,98,0.00,,,0.00,Wunderground v.1.15,2013-07-26 14:25:00,
2013-07-26 10:35:00,67.9,67.3,30.10,East,84,0.0,0.0,98,0.00,,,0.00,Wunderground v.1.15,2013-07-26 14:35:00,
2013-07-26 10:40:00,67.9,67.3,30.10,East,84,0.0,0.0,98,0.00,,,0.00,Wunderground v.1.15,2013-07-26 14:40:00,
2013-07-26 10:45:00,68.1,67.5,30.10,ESE,118,0.0,0.0,98,0.00,,,0.00,Wunderground v.1.15,2013-07-26 14:45:00,
2013-07-26 10:50:00,68.4,67.8,30.10,ESE,118,0.0,0.0,98,0.00,,,0.00,Wunderground v.1.15,2013-07-26 14:50:00,
2013-07-26 10:55:00,68.6,67.7,30.10,East,84,0.0,0.0,97,0.00,,,0.00,Wunderground v.1.15,2013-07-26 14:55:00,
2013-07-26 11:00:00,68.9,68.0,30.10,ENE,76,0.0,0.0,97,0.00,,,0.00,Wunderground v.1.15,2013-07-26 15:00:00,
2013-07-26 11:05:00,69.3,67.8,30.10,SE,130,0.0,0.0,95,0.00,,,0.00,Wunderground v.1.15,2013-07-26 15:05:00,
2013-07-26 11:10:00,69.7,67.9,30.10,SSE,150,0.0,0.0,94,0.00,,,0.00,Wunderground v.1.15,2013-07-26 15:10:00,
2013-07-26 11:15:00,70.0,68.5,30.10,East,101,0.0,1.0,95,0.00,,,0.00,Wunderground v.1.15,2013-07-26 15:15:00,
2013-07-26 11:20:00,70.4,68.3,30.10,NE,44,0.0,0.0,93,0.00,,,0.00,Wunderground v.1.15,2013-07-26 15:20:00,
2013-07-26 11:25:00,70.6,68.5,30.10,ESE,116,0.0,0.0,93,0.00,,,0.00,Wunderground v.1.15,2013-07-26 15:25:00,
2013-07-26 11:30:00,70.7,68.3,30.10,SSE,158,0.0,0.0,92,0.00,,,0.00,Wunderground v.1.15,2013-07-26 15:30:00,
2013-07-26 11:35:00,70.8,68.0,30.10,East,94,0.0,0.0,91,0.00,,,0.00,Wunderground v.1.15,2013-07-26 15:35:00,
2013-07-26 11:40:00,71.0,68.9,30.10,ESE,107,0.0,0.0,93,0.00,,,0.00,Wunderground v.1.15,2013-07-26 15:40:00,
2013-07-26 11:45:00,71.2,68.4,30.10,ESE,103,0.0,0.0,91,0.00,,,0.00,Wunderground v.1.15,2013-07-26 15:45:00,
2013-07-26 11:50:00,71.3,68.5,30.10,NE,55,0.0,0.0,91,0.00,,,0.00,Wunderground v.1.15,2013-07-26 15:50:00,
2013-07-26 11:55:00,71.5,68.7,30.10,SSE,160,0.0,0.0,91,0.00,,,0.00,Wunderground v.1.15,2013-07-26 15:55:00,
2013-07-26 12:00:00,71.8,68.7,30.09,SSE,159,0.0,0.0,90,0.00,,,0.00,Wunderground v.1.15,2013-07-26 16:00:00,
2013-07-26 12:05:00,72.2,69.1,30.09,WSW,238,0.0,0.0,90,0.00,,,0.00,Wunderground v.1.15,2013-07-26 16:05:00,
2013-07-26 12:15:00,72.9,69.5,30.09,SSE,168,0.0,1.0,89,0.00,,,0.00,Wunderground v.1.15,2013-07-26 16:15:00,
2013-07-26 12:20:00,73.1,69.3,30.09,SSE,168,1.0,1.0,88,0.00,,,0.00,Wunderground v.1.15,2013-07-26 16:20:00,
2013-07-26 12:25:00,73.4,70.3,30.09,South,180,0.0,1.0,90,0.00,,,0.00,Wunderground v.1.15,2013-07-26 16:25:00,
2013-07-26 12:30:00,73.7,69.6,30.09,South,186,0.0,0.0,87,0.00,,,0.00,Wunderground v.1.15,2013-07-26 16:30:00,
2013-07-26 12:40:00,74.2,68.7,30.09,SE,132,0.0,2.0,83,0.00,,,0.00,Wunderground v.1.15,2013-07-26 16:40:00,
2013-07-26 12:45:00,74.4,68.9,30.09,East,101,1.0,2.0,83,0.00,,,0.00,Wunderground v.1.15,2013-07-26 16:45:00,
2013-07-26 12:49:00,74.6,68.0,30.09,SSE,152,1.0,1.0,80,0.00,,,0.00,Wunderground v.1.15,2013-07-26 16:49:00,
2013-07-26 12:55:00,74.8,68.6,30.09,SE,143,0.0,1.0,81,0.00,,,0.00,Wunderground v.1.15,2013-07-26 16:55:00,
2013-07-26 13:00:00,74.9,68.3,30.09,ESE,105,1.0,1.0,80,0.00,,,0.00,Wunderground v.1.15,2013-07-26 17:00:00,
2013-07-26 13:05:00,75.2,68.6,30.09,SSE,148,1.0,1.0,80,0.00,,,0.00,Wunderground v.1.15,2013-07-26 17:05:00,
2013-07-26 13:15:00,75.8,68.1,30.08,ESE,113,2.0,3.0,77,0.00,,,0.00,Wunderground v.1.15,2013-07-26 17:15:00,
2013-07-26 13:19:00,76.3,68.6,30.08,SSE,150,1.0,1.0,77,0.00,,,0.00,Wunderground v.1.15,2013-07-26 17:19:00,
2013-07-26 13:24:00,76.4,68.7,30.08,SE,143,1.0,1.0,77,0.00,,,0.00,Wunderground v.1.15,2013-07-26 17:24:00,
2013-07-26 13:30:00,76.5,68.0,30.08,NNE,24,1.0,1.0,75,0.00,,,0.00,Wunderground v.1.15,2013-07-26 17:30:00,
2013-07-26 13:35:00,77.0,69.6,30.08,SSW,194,0.0,1.0,78,0.00,,,0.00,Wunderground v.1.15,2013-07-26 17:35:00,
2013-07-26 13:40:00,77.2,69.0,30.08,SSE,151,1.0,4.0,76,0.00,,,0.00,Wunderground v.1.15,2013-07-26 17:40:00,
2013-07-26 13:45:00,77.1,68.9,30.07,SSW,207,1.0,4.0,76,0.00,,,0.00,Wunderground v.1.15,2013-07-26 17:45:00,
2013-07-26 13:50:00,77.0,68.9,30.08,North,5,2.0,2.0,76,0.00,,,0.00,Wunderground v.1.15,2013-07-26 17:50:00,
2013-07-26 13:55:00,77.0,68.1,30.07,ESE,123,2.0,2.0,74,0.00,,,0.00,Wunderground v.1.15,2013-07-26 17:55:00,
2013-07-26 14:00:00,77.1,68.2,30.07,South,171,1.0,1.0,74,0.00,,,0.00,Wunderground v.1.15,2013-07-26 18:00:00,
2013-07-26 14:05:00,77.4,69.2,30.06,NNE,26,1.0,1.0,76,0.00,,,0.00,Wunderground v.1.15,2013-07-26 18:05:00,
2013-07-26 14:10:00,77.7,70.3,30.06,ESE,113,0.0,0.0,78,0.00,,,0.00,Wunderground v.1.15,2013-07-26 18:10:00,
2013-07-26 14:15:00,77.8,69.2,30.06,East,90,0.0,0.0,75,0.00,,,0.00,Wunderground v.1.15,2013-07-26 18:15:00,
2013-07-26 14:25:00,77.9,68.5,30.06,ENE,76,0.0,3.0,73,0.00,,,0.00,Wunderground v.1.15,2013-07-26 18:25:00,
2013-07-26 14:30:00,77.8,68.4,30.06,East,97,1.0,1.0,73,0.00,,,0.00,Wunderground v.1.15,2013-07-26 18:30:00,
2013-07-26 14:35:00,77.7,68.0,30.06,SSW,194,1.0,2.0,72,0.00,,,0.00,Wunderground v.1.15,2013-07-26 18:35:00,
2013-07-26 14:40:00,77.7,68.7,30.06,SW,223,1.0,1.0,74,0.00,,,0.00,Wunderground v.1.15,2013-07-26 18:40:00,
2013-07-26 14:45:00,77.5,68.2,30.05,East,79,1.0,2.0,73,0.00,,,0.00,Wunderground v.1.15,2013-07-26 18:45:00,
2013-07-26 14:50:00,77.3,68.8,30.06,South,177,2.0,2.0,75,0.00,,,0.00,Wunderground v.1.15,2013-07-26 18:50:00,
2013-07-26 14:55:00,76.9,68.8,30.06,SSW,198,1.0,2.0,76,0.00,,,0.00,Wunderground v.1.15,2013-07-26 18:55:00,
2013-07-26 15:00:00,76.6,68.5,30.06,SSW,198,0.0,0.0,76,0.00,,,0.00,Wunderground v.1.15,2013-07-26 19:00:00,
2013-07-26 15:05:00,76.4,68.3,30.05,East,100,0.0,0.0,76,0.00,,,0.00,Wunderground v.1.15,2013-07-26 19:05:00,
2013-07-26 15:10:00,76.7,68.6,30.05,NE,46,0.0,0.0,76,0.00,,,0.00,Wunderground v.1.15,2013-07-26 19:10:00,
2013-07-26 15:15:00,77.1,67.8,30.05,ENE,73,0.0,3.0,73,0.00,,,0.00,Wunderground v.1.15,2013-07-26 19:15:00,
2013-07-26 15:20:00,77.1,67.8,30.05,East,94,1.0,1.0,73,0.00,,,0.00,Wunderground v.1.15,2013-07-26 19:20:00,
2013-07-26 15:25:00,77.1,68.2,30.05,SE,134,1.0,2.0,74,0.00,,,0.00,Wunderground v.1.15,2013-07-26 19:25:00,
2013-07-26 15:30:00,77.0,67.7,30.05,NE,42,1.0,1.0,73,0.00,,,0.00,Wunderground v.1.15,2013-07-26 19:30:00,
2013-07-26 15:35:00,77.2,67.1,30.05,ESE,121,1.0,1.0,71,0.00,,,0.00,Wunderground v.1.15,2013-07-26 19:35:00,
2013-07-26 15:40:00,77.2,67.9,30.05,NE,34,1.0,2.0,73,0.00,,,0.00,Wunderground v.1.15,2013-07-26 19:40:00,
2013-07-26 15:45:00,77.4,69.2,30.05,SSW,198,2.0,2.0,76,0.00,,,0.00,Wunderground v.1.15,2013-07-26 19:45:00,
2013-07-26 15:50:00,77.5,69.3,30.04,ENE,61,1.0,1.0,76,0.00,,,0.00,Wunderground v.1.15,2013-07-26 19:50:00,
2013-07-26 15:55:00,77.5,69.3,30.05,South,180,1.0,1.0,76,0.00,,,0.00,Wunderground v.1.15,2013-07-26 19:55:00,
2013-07-26 16:00:00,77.5,68.9,30.04,SSE,164,0.0,0.0,75,0.00,,,0.00,Wunderground v.1.15,2013-07-26 20:00:00,
2013-07-26 16:05:00,77.4,69.2,30.03,SSW,205,0.0,0.0,76,0.00,,,0.00,Wunderground v.1.15,2013-07-26 20:05:00,
2013-07-26 16:10:00,77.4,69.2,30.03,ESE,121,0.0,0.0,76,0.00,,,0.00,Wunderground v.1.15,2013-07-26 20:10:00,
2013-07-26 16:15:00,77.4,69.2,30.03,SE,137,1.0,2.0,76,0.00,,,0.00,Wunderground v.1.15,2013-07-26 20:15:00,
2013-07-26 16:20:00,77.2,68.7,30.03,SSE,161,1.0,2.0,75,0.00,,,0.00,Wunderground v.1.15,2013-07-26 20:20:00,
2013-07-26 16:25:00,77.0,67.7,30.03,SE,135,2.0,2.0,73,0.00,,,0.00,Wunderground v.1.15,2013-07-26 20:25:00,
2013-07-26 16:30:00,76.9,68.0,30.03,SE,142,1.0,1.0,74,0.00,,,0.00,Wunderground v.1.15,2013-07-26 20:30:00,
2013-07-26 16:35:00,77.0,68.5,30.03,South,184,1.0,2.0,75,0.00,,,0.00,Wunderground v.1.15,2013-07-26 20:35:00,
2013-07-26 16:40:00,76.7,68.6,30.03,South,186,1.0,1.0,76,0.00,,,0.00,Wunderground v.1.15,2013-07-26 20:40:00,
2013-07-26 16:45:00,76.6,68.5,30.03,South,186,1.0,1.0,76,0.00,,,0.00,Wunderground v.1.15,2013-07-26 20:45:00,
2013-07-26 16:50:00,76.6,68.5,30.03,South,186,1.0,1.0,76,0.00,,,0.00,Wunderground v.1.15,2013-07-26 20:50:00,
2013-07-26 16:55:00,76.6,68.5,30.02,SSW,201,1.0,2.0,76,0.00,,,0.00,Wunderground v.1.15,2013-07-26 20:55:00,
2013-07-26 17:00:00,76.5,68.7,30.02,South,189,1.0,2.0,77,0.00,,,0.00,Wunderground v.1.15,2013-07-26 21:00:00,
2013-07-26 17:05:00,76.5,68.4,30.02,East,92,2.0,4.0,76,0.00,,,0.00,Wunderground v.1.15,2013-07-26 21:05:00,
2013-07-26 17:10:00,76.6,68.8,30.03,ENE,64,2.0,2.0,77,0.00,,,0.00,Wunderground v.1.15,2013-07-26 21:10:00,
2013-07-26 17:15:00,76.6,69.2,30.02,SSE,161,1.0,2.0,78,0.00,,,0.00,Wunderground v.1.15,2013-07-26 21:15:00,
2013-07-26 17:19:00,76.7,68.9,30.03,South,182,1.0,2.0,77,0.00,,,0.00,Wunderground v.1.15,2013-07-26 21:19:00,
2013-07-26 17:25:00,76.5,68.7,30.03,South,184,1.0,2.0,77,0.00,,,0.00,Wunderground v.1.15,2013-07-26 21:25:00,
2013-07-26 17:30:00,76.2,68.8,30.03,South,184,1.0,1.0,78,0.00,,,0.00,Wunderground v.1.15,2013-07-26 21:30:00,
2013-07-26 17:35:00,76.0,68.6,30.03,SSE,163,1.0,1.0,78,0.00,,,0.00,Wunderground v.1.15,2013-07-26 21:35:00,
2013-07-26 17:40:00,75.9,68.5,30.03,SSE,163,1.0,1.0,78,0.00,,,0.00,Wunderground v.1.15,2013-07-26 21:40:00,
2013-07-26 17:45:00,75.9,68.5,30.03,ESE,117,1.0,2.0,78,0.00,,,0.00,Wunderground v.1.15,2013-07-26 21:45:00,
2013-07-26 17:50:00,75.9,68.5,30.03,ESE,111,1.0,1.0,78,0.00,,,0.00,Wunderground v.1.15,2013-07-26 21:50:00,
2013-07-26 17:55:00,75.9,69.3,30.03,NNE,13,0.0,1.0,80,0.00,,,0.00,Wunderground v.1.15,2013-07-26 21:55:00,
2013-07-26 18:00:00,75.7,68.4,30.03,ENE,63,1.0,1.0,78,0.00,,,0.00,Wunderground v.1.15,2013-07-26 22:00:00,
2013-07-26 18:05:00,75.5,69.6,30.03,North,5,1.0,1.0,82,0.00,,,0.00,Wunderground v.1.15,2013-07-26 22:05:00,
2013-07-26 18:10:00,75.3,69.1,30.03,North,5,0.0,0.0,81,0.00,,,0.00,Wunderground v.1.15,2013-07-26 22:10:00,
2013-07-26 18:15:00,75.2,69.3,30.03,North,5,0.0,0.0,82,0.00,,,0.00,Wunderground v.1.15,2013-07-26 22:15:00,
2013-07-26 18:19:00,75.1,68.9,30.02,NNE,15,0.0,0.0,81,0.00,,,0.00,Wunderground v.1.15,2013-07-26 22:19:00,
2013-07-26 18:24:00,74.9,69.0,30.02,NNE,23,0.0,0.0,82,0.00,,,0.00,Wunderground v.1.15,2013-07-26 22:24:00,
2013-07-26 18:30:00,74.6,69.1,30.02,NNW,337,0.0,0.0,83,0.00,,,0.00,Wunderground v.1.15,2013-07-26 22:30:00,
2013-07-26 18:35:00,74.5,69.0,30.02,NNW,337,0.0,0.0,83,0.00,,,0.00,Wunderground v.1.15,2013-07-26 22:35:00,
2013-07-26 18:40:00,74.4,69.2,30.02,NNW,337,0.0,0.0,84,0.00,,,0.00,Wunderground v.1.15,2013-07-26 22:40:00,
2013-07-26 18:45:00,74.2,68.7,30.02,NNW,337,0.0,0.0,83,0.00,,,0.00,Wunderground v.1.15,2013-07-26 22:45:00,
2013-07-26 18:50:00,74.0,68.9,30.02,NNW,337,0.0,0.0,84,0.00,,,0.00,Wunderground v.1.15,2013-07-26 22:50:00,
2013-07-26 18:55:00,73.7,68.6,30.02,NNW,337,0.0,0.0,84,0.00,,,0.00,Wunderground v.1.15,2013-07-26 22:55:00,
2013-07-26 19:00:00,73.6,68.5,30.02,NNW,337,0.0,0.0,84,0.00,,,0.00,Wunderground v.1.15,2013-07-26 23:00:00,
2013-07-26 19:05:00,73.5,68.4,30.02,NNW,337,0.0,0.0,84,0.00,,,0.00,Wunderground v.1.15,2013-07-26 23:05:00,
2013-07-26 19:10:00,73.4,68.3,30.02,NNW,337,0.0,0.0,84,0.00,,,0.00,Wunderground v.1.15,2013-07-26 23:10:00,
2013-07-26 19:15:00,73.3,68.5,30.03,NNW,337,0.0,0.0,85,0.00,,,0.00,Wunderground v.1.15,2013-07-26 23:15:00,
2013-07-26 19:20:00,73.2,68.4,30.02,NNW,337,0.0,0.0,85,0.00,,,0.00,Wunderground v.1.15,2013-07-26 23:20:00,
2013-07-26 19:25:00,73.0,68.6,30.02,NNW,337,0.0,0.0,86,0.00,,,0.00,Wunderground v.1.15,2013-07-26 23:25:00,
2013-07-26 19:30:00,72.9,68.5,30.02,NNW,337,0.0,0.0,86,0.00,,,0.00,Wunderground v.1.15,2013-07-26 23:30:00,
2013-07-26 19:40:00,72.7,68.6,30.02,NNW,337,0.0,0.0,87,0.00,,,0.00,Wunderground v.1.15,2013-07-26 23:40:00,
2013-07-26 19:45:00,72.5,68.7,30.03,NNW,337,0.0,0.0,88,0.00,,,0.00,Wunderground v.1.15,2013-07-26 23:45:00,
2013-07-26 19:55:00,71.7,68.6,30.03,NNW,337,0.0,0.0,90,0.00,,,0.00,Wunderground v.1.15,2013-07-26 23:55:00,
2013-07-26 20:00:00,71.5,68.4,30.03,NNW,337,0.0,0.0,90,0.00,,,0.00,Wunderground v.1.15,2013-07-27 00:00:00,
2013-07-26 20:05:00,71.3,68.5,30.04,NNW,337,0.0,0.0,91,0.00,,,0.00,Wunderground v.1.15,2013-07-27 00:05:00,
2013-07-26 20:10:00,71.1,68.3,30.03,NNW,337,0.0,0.0,91,0.00,,,0.00,Wunderground v.1.15,2013-07-27 00:10:00,
2013-07-26 20:15:00,71.0,68.6,30.03,NNW,337,0.0,0.0,92,0.00,,,0.00,Wunderground v.1.15,2013-07-27 00:15:00,
2013-07-26 20:20:00,70.9,68.5,30.02,NNW,337,0.0,0.0,92,0.00,,,0.00,Wunderground v.1.15,2013-07-27 00:20:00,
2013-07-26 20:25:00,70.8,68.4,30.02,NNW,337,0.0,0.0,92,0.00,,,0.00,Wunderground v.1.15,2013-07-27 00:25:00,
2013-07-26 20:30:00,70.6,68.2,30.03,NNW,337,0.0,0.0,92,0.00,,,0.00,Wunderground v.1.15,2013-07-27 00:30:00,
2013-07-26 20:40:00,70.2,68.1,30.03,NNW,337,0.0,0.0,93,0.00,,,0.00,Wunderground v.1.15,2013-07-27 00:40:00,
2013-07-26 20:45:00,70.1,68.0,30.02,NNW,337,0.0,0.0,93,0.00,,,0.00,Wunderground v.1.15,2013-07-27 00:45:00,
2013-07-26 20:50:00,70.0,68.2,30.03,NNW,337,0.0,0.0,94,0.00,,,0.00,Wunderground v.1.15,2013-07-27 00:50:00,
2013-07-26 20:55:00,69.8,68.0,30.04,NNW,337,0.0,0.0,94,0.00,,,0.00,Wunderground v.1.15,2013-07-27 00:55:00,
2013-07-26 21:00:00,69.6,68.1,30.04,SSE,156,0.0,2.0,95,2.35,,,0.08,Wunderground v.1.15,2013-07-27 01:00:00,
2013-07-26 21:05:00,69.3,67.8,30.04,South,179,1.0,2.0,95,0.44,,,0.15,Wunderground v.1.15,2013-07-27 01:05:00,
2013-07-26 21:10:00,69.1,67.6,30.04,South,179,1.0,1.0,95,0.11,,,0.15,Wunderground v.1.15,2013-07-27 01:10:00,
2013-07-26 21:14:00,68.9,67.7,30.04,South,179,0.0,1.0,96,0.06,,,0.15,Wunderground v.1.15,2013-07-27 01:14:00,
2013-07-26 21:20:00,68.7,67.5,30.04,South,179,0.0,1.0,96,0.04,,,0.15,Wunderground v.1.15,2013-07-27 01:20:00,
2013-07-26 21:25:00,68.5,67.3,30.03,South,179,1.0,1.0,96,0.00,,,0.15,Wunderground v.1.15,2013-07-27 01:25:00,
2013-07-26 21:30:00,68.4,67.5,30.03,South,179,1.0,1.0,97,0.00,,,0.15,Wunderground v.1.15,2013-07-27 01:30:00,
2013-07-26 21:40:00,68.4,67.5,30.03,South,179,0.0,1.0,97,0.00,,,0.15,Wunderground v.1.15,2013-07-27 01:40:00,
2013-07-26 21:45:00,68.4,67.5,30.04,South,179,1.0,1.0,97,0.00,,,0.15,Wunderground v.1.15,2013-07-27 01:45:00,
2013-07-26 21:54:00,68.0,66.8,30.04,South,179,0.0,1.0,96,0.00,,,0.15,Wunderground v.1.15,2013-07-27 01:54:00,
2013-07-26 21:59:00,68.0,67.1,30.04,South,179,0.0,0.0,97,0.00,,,0.15,Wunderground v.1.15,2013-07-27 01:59:00,
2013-07-26 22:05:00,67.9,67.0,30.05,South,179,0.0,0.0,97,0.00,,,0.15,Wunderground v.1.15,2013-07-27 02:05:00,
2013-07-26 22:15:00,67.8,66.9,30.04,South,179,0.0,0.0,97,0.00,,,0.15,Wunderground v.1.15,2013-07-27 02:15:00,
2013-07-26 22:25:00,67.7,66.8,30.03,South,179,0.0,0.0,97,0.00,,,0.15,Wunderground v.1.15,2013-07-27 02:25:00,
2013-07-26 22:30:00,67.6,66.7,30.04,South,179,0.0,0.0,97,0.00,,,0.15,Wunderground v.1.15,2013-07-27 02:30:00,
2013-07-26 22:35:00,67.6,66.7,30.04,South,179,0.0,0.0,97,0.00,,,0.15,Wunderground v.1.15,2013-07-27 02:35:00,
2013-07-26 22:40:00,67.5,66.6,30.03,South,179,0.0,0.0,97,0.00,,,0.15,Wunderground v.1.15,2013-07-27 02:40:00,
2013-07-26 22:45:00,67.5,66.6,30.03,South,179,0.0,0.0,97,0.00,,,0.15,Wunderground v.1.15,2013-07-27 02:45:00,
2013-07-26 22:50:00,67.4,66.5,30.04,South,179,0.0,0.0,97,0.00,,,0.15,Wunderground v.1.15,2013-07-27 02:50:00,
2013-07-26 22:55:00,67.4,66.5,30.04,South,179,0.0,0.0,97,0.00,,,0.15,Wunderground v.1.15,2013-07-27 02:55:00,
2013-07-26 23:00:00,67.4,66.5,30.04,South,179,0.0,0.0,97,0.00,,,0.15,Wunderground v.1.15,2013-07-27 03:00:00,
2013-07-26 23:05:00,67.4,66.8,30.04,South,179,0.0,0.0,98,0.00,,,0.15,Wunderground v.1.15,2013-07-27 03:05:00,
2013-07-26 23:10:00,67.4,66.8,30.04,South,179,0.0,0.0,98,0.00,,,0.15,Wunderground v.1.15,2013-07-27 03:10:00,
2013-07-26 23:15:00,67.4,66.8,30.03,South,179,0.0,0.0,98,0.00,,,0.15,Wunderground v.1.15,2013-07-27 03:15:00,
2013-07-26 23:20:00,67.4,66.8,30.04,South,179,0.0,0.0,98,0.00,,,0.15,Wunderground v.1.15,2013-07-27 03:20:00,
2013-07-26 23:25:00,67.4,66.8,30.04,South,179,0.0,0.0,98,0.00,,,0.16,Wunderground v.1.15,2013-07-27 03:25:00,
2013-07-26 23:30:00,67.4,66.8,30.04,South,179,0.0,0.0,98,0.00,,,0.16,Wunderground v.1.15,2013-07-27 03:30:00,
2013-07-26 23:35:00,67.5,66.9,30.04,South,179,0.0,0.0,98,0.07,,,0.17,Wunderground v.1.15,2013-07-27 03:35:00,
2013-07-26 23:40:00,67.5,66.9,30.04,South,179,0.0,0.0,98,0.10,,,0.18,Wunderground v.1.15,2013-07-27 03:40:00,
2013-07-26 23:45:00,67.6,67.0,30.04,South,179,0.0,0.0,98,0.10,,,0.18,Wunderground v.1.15,2013-07-27 03:45:00,
2013-07-26 23:49:00,67.6,67.0,30.04,South,179,0.0,0.0,98,0.27,,,0.21,Wunderground v.1.15,2013-07-27 03:49:00,
2013-07-26 23:55:00,67.7,67.1,30.04,South,179,0.0,0.0,98,0.16,,,0.22,Wunderground v.1.15,2013-07-27 03:55:00,